Regional Weather Roundup
Issued by NWS Cleveland, OH

Home | Current Version | Previous Version | Text Only | Print | Product List | Glossary Off
Versions: 1 2 3 4 5 6 7 8 9 10 11 12 13 14 15 16 17 18 19 20 21 22 23 24 25 26 27 28 29 30 31 32 33 34 35 36 37 38 39 40 41 42 43 44 45 46 47 48 49 50

000
ASUS41 KCLE 021510
RWRCLE
OHIO REGIONAL WEATHER ROUNDUP
NATIONAL WEATHER SERVICE WILMINGTON, OH
1100 AM EDT WED SEP 02 2015

NOTE: "FAIR" INDICATES FEW OR NO CLOUDS BELOW 12,000 FEET WITH NO
SIGNIFICANT WEATHER AND/OR OBSTRUCTIONS TO VISIBILITY.

OHZ001>008-015>018-024>027-034-035-043-044-021600-
   NORTHWEST OHIO

CITY           SKY/WX    TMP DP  RH WIND       PRES   REMARKS
DEFIANCE       MOSUNNY   77  70  79 SW8       30.09F
FINDLAY        PTSUNNY   80  70  71 W9        30.10R
TOLEDO EXPRESS CLOUDY    75  69  81 NE6       30.09R
TOLEDO EXEC    TSTM      75  69  81 N16       30.12R
LIMA           MOSUNNY   79  69  71 SW7       30.12S
$$

OHZ009>014-019>023-028>033-038-089-021600-
   NORTHEAST OHIO

CITY           SKY/WX    TMP DP  RH WIND       PRES   REMARKS
CLE-HOPKINS    MOSUNNY   80  70  71 SW7       30.11S
CLE-LAKEFRONT  SUNNY     80  69  69 W6        30.07S
CUY CO. ARPT   MOSUNNY   82  72  69 W8        30.09F
LORAIN-ELYRIA  SUNNY     80  69  69 VRB6      30.10S
ASHTABULA      SUNNY     81  72  74 W8        30.10S
AKRON-CANTON   MOSUNNY   82  68  62 SW8       30.12S
WOOSTER        SUNNY     80  68  66 SW7       30.12S
MANSFIELD      SUNNY     81  68  64 SW10      30.14R
YOUNGSTOWN     MOSUNNY   81  67  62 SW6       30.11S
$$

OHZ042-051>053-060>062-070>072-077>081-021600-
  SOUTHWEST OHIO

CITY           SKY/WX    TMP DP  RH WIND       PRES   REMARKS
CINC-COVINGTON MOSUNNY   82  68  62 W7        30.15S
CINC-LUNKEN    SUNNY     81  71  71 VRB3      30.14F
HAMILTON       SUNNY     82  70  66 VRB3      30.15S
DAYTON         PTSUNNY   81  71  71 W8        30.15S
WRIGHT-PAT AFB PTSUNNY   75  71  88 S3        30.14S
DAYTON GENERAL MOSUNNY   79  69  71 W8        30.14S
WILMINGTON     PTSUNNY   82  69  64 W9        30.14S
$$

OHZ036-037-039>041-045>050-054>059-063>069-073>076-082>088-021600-
  CENTRAL AND SOUTHEAST OHIO

CITY           SKY/WX    TMP DP  RH WIND       PRES   REMARKS
COLUMBUS       PTSUNNY   81  65  58 NW6       30.13R
OSU AIRPORT    PTSUNNY   75  71  87 W5        30.14R
BOLTON FIELD   TSTM      73  68  83 NW6       30.16R
RICKENBACK AFB MOSUNNY   78  66  66 W5        30.13S
NEWARK         SUNNY     82  69  64 NW8       30.13S
MARION         MOSUNNY   77  67  71 SW7       30.13S
LANCASTER      SUNNY     81  67  62 VRB5      30.14S
ZANESVILLE     SUNNY     82  66  58 CALM      30.13S
NEW PHILLY     SUNNY     82  68  62 W5        30.12F
$$



USA.gov is the U.S. government's official web portal to all federal, state and local government web resources and services.